Location: Banksville Park
(38.5557°N, 75.1182°W)
Time: 12:29:55
(UTC+00:00)

Okean 2 Rocket - Pass Details

Date: 19 September 2020
Orbit: 616 x 642 km, 82.5° (Epoch: 23 October)

Event Time Altitude Azimuth Distance (km) Brightness Sun altitude
Rises 00:29:51 0° 187° (S) 2,932 6.4 -17.6°
Reaches altitude 10° 00:32:05 10° 187° (S) 2,025 5.6 -18.0°
Maximum altitude 00:36:36 86° 278° (W) 645 3.1 -18.8°
Drops below altitude 10° 00:41:07 10° 6° (N) 2,028 5.8 -19.7°
Sets 00:43:21 0° 7° (N) 2,937 6.7 -20.1°
